This is the latest recevied weather packets stored in our database for station/object OE5MMP-13. If no packets are shown the sender has not sent any weather packets the latest 10 day(s).
| Time | Temp. | Humidity | Pressure | Rain* | Wind** | Luminosity | Snow |
|---|---|---|---|---|---|---|---|
| 1787914403 | 30° C | 55% | 1011.3 hPa | 0 mm | - | 711 W/m² | - |
| 1787913803 | 30.56° C | 55% | 1011.5 hPa | 0 mm | - | 705 W/m² | - |
| 1787913203 | 29.44° C | 56% | 1011.5 hPa | 0 mm | - | 698 W/m² | - |
| 1787912603 | 28.89° C | 57% | 1011.4 hPa | 0 mm | - | 693 W/m² | - |
| 1787912003 | 28.33° C | 58% | 1011.3 hPa | 0 mm | - | 684 W/m² | - |
| 1787911403 | 28.33° C | 58% | 1011.2 hPa | 0 mm | - | 680 W/m² | - |
| 1787910803 | 28.33° C | 58% | 1011.4 hPa | 0 mm | - | 674 W/m² | - |
| 1787910203 | 27.78° C | 58% | 1011.5 hPa | 0 mm | - | 666 W/m² | - |
| 1787909603 | 27.22° C | 59% | 1011.4 hPa | 0 mm | - | 656 W/m² | - |
| 1787909003 | 26.67° C | 60% | 1011.7 hPa | 0 mm | - | 648 W/m² | - |
| 1787908403 | 26.67° C | 60% | 1012.1 hPa | 0 mm | - | 529 W/m² | - |
| 1787907803 | 26.11° C | 62% | 1012.4 hPa | 0 mm | - | 610 W/m² | - |
| 1787907203 | 26.11° C | 62% | 1012.8 hPa | 0 mm | - | 591 W/m² | - |
| 1787906603 | 25.56° C | 63% | 1012.6 hPa | 0 mm | - | 574 W/m² | - |
| 1787906003 | 25° C | 64% | 1012.9 hPa | 0 mm | - | 550 W/m² | - |
| 1787905402 | 24.44° C | 66% | 1012.8 hPa | 0 mm | - | 531 W/m² | - |
| 1787904802 | 24.44° C | 66% | 1012.7 hPa | 0 mm | - | 512 W/m² | - |
| 1787904202 | 23.89° C | 67% | 1012.7 hPa | 0 mm | - | 487 W/m² | - |
| 1787903602 | 23.33° C | 68% | 1012.8 hPa | 0 mm | - | 462 W/m² | - |
| 1787903002 | 22.78° C | 69% | 1012.7 hPa | 0 mm | - | 445 W/m² | - |
| 1787902402 | 22.78° C | 69% | 1012.8 hPa | 0 mm | - | 324 W/m² | - |
| 1787901802 | 22.78° C | 69% | 1012.8 hPa | 0 mm | - | 334 W/m² | - |
| 1787901202 | 22.22° C | 69% | 1012.6 hPa | 0 mm | - | 344 W/m² | - |
| 1787900602 | 22.22° C | 69% | 1012.8 hPa | 0 mm | - | 221 W/m² | - |
| 1787900002 | 22.22° C | 69% | 1013.1 hPa | 0 mm | - | 251 W/m² | - |
* Rain latest hour (hover to see other rain measurements)
** Current wind speed in m/s (hover to see current wind gust speed)